Terminal Aerodrome Forecast
Issued by NWS King Salmon, AK

Home | Current Version | Previous Version | Text Only | Print | Product List | Glossary On
Versions: 1 2 3 4 5 6 7 8 9 10 11 12 13 14 15 16 17 18 19 20 21 22 23 24 25 26 27 28 29 30 31 32 33 34
000
FTAK31 PANC 281359 AAA
TAFAKN
TAF AMD
PAKN 281359Z 2814/2912 19008KT P6SM OVC004
      TEMPO 2814/2818 4SM BR OVC002
     FM281800 20012KT P6SM BKN015 OVC050
     FM290000 22014KT P6SM -SHRA OVC015
     FM290900 VRB05KT P6SM VCSH SCT015 BKN025=

USA.gov is the U.S. government's official web portal to all federal, state and local government web resources and services.